This is the latest recevied weather packets stored in our database for station/object HI6LT. If no packets are shown the sender has not sent any weather packets the latest 10 day(s).
| Time | Temp. | Humidity | Pressure | Rain* | Wind** | Luminosity | Snow |
|---|---|---|---|---|---|---|---|
| 1777602177 | 16.11° C | 98% | 1033.3 hPa | 0 mm | - | - | - |
| 1777601863 | 15.56° C | 98% | 1034.4 hPa | 0 mm | - | - | - |
| 1777601503 | 15.56° C | 98% | 1034.1 hPa | 0 mm | - | - | - |
| 1777600376 | 16.11° C | 98% | 1033.6 hPa | 0 mm | - | - | - |
| 1777599702 | 16.11° C | 98% | 1034 hPa | 0 mm | - | - | - |
| 1777599162 | 16.11° C | 98% | 1033.5 hPa | 0 mm | - | - | - |
| 1777598577 | 16.11° C | 98% | 1033.1 hPa | 0 mm | - | - | - |
| 1777597900 | 16.11° C | 98% | 1033.3 hPa | 0 mm | - | - | - |
| 1777597377 | 16.11° C | 97% | 1032.5 hPa | 0 mm | - | - | - |
| 1777596459 | 16.11° C | 98% | 1033.7 hPa | 0 mm | - | - | - |
| 1777596099 | 16.11° C | 98% | 1033.6 hPa | 0 mm | - | - | - |
| 1777594300 | 16.11° C | 97% | 1031.9 hPa | 0 mm | - | - | - |
| 1777594297 | 16.11° C | 98% | 1033.1 hPa | 0 mm | - | - | - |
| 1777593757 | 16.11° C | 98% | 1033.1 hPa | 0 mm | - | - | - |
| 1777592498 | 16.11° C | 97% | 1032.5 hPa | 0 mm | - | - | - |
| 1777591055 | 16.11° C | 97% | 1031.8 hPa | 0 mm | - | - | - |
| 1777590777 | 16.67° C | 96% | 1031.6 hPa | 0 mm | - | - | - |
| 1777590705 | 16.11° C | 97% | 1031.9 hPa | 0 mm | - | - | - |
| 1777590175 | 16.67° C | 97% | 1032 hPa | 0 mm | - | - | - |
| 1777589752 | 17.22° C | 96% | 1031 hPa | 0 mm | - | - | - |
| 1777589019 | 17.78° C | 96% | 1031 hPa | 0 mm | - | - | - |
| 1777588904 | 16.67° C | 96% | 1031.6 hPa | 0 mm | - | - | - |
| 1777587777 | 17.78° C | 97% | 1030.9 hPa | 0 mm | - | - | - |
| 1777587472 | 17.22° C | 96% | 1031.3 hPa | 0 mm | - | - | - |
| 1777587101 | 17.22° C | 96% | 1031 hPa | 0 mm | - | - | - |
* Rain latest hour (hover to see other rain measurements)
** Current wind speed in m/s (hover to see current wind gust speed)